CZ-2C R/B, 63127

Orbit data source: Space-Track

CZ-2C R/B, 63127 is space debris in SSO originally from a launch on Thu, 27 Feb 2025 UTC launched from the Jiuquan Satellite Launch Center, China (JSC). Debris objects in space refer to the collection of defunct objects orbiting the Earth. Examples of debris include non-operational satellites, rocket bodies, and fragments generated from explosions, collisions, or faulty payload assembly.

Loading next visibility...
Identifier
63127, 2025-040C
Orbit
SSO
Country
Flag of CNCN / PRC
Related business
Manufacturer
CALT
Mission
Spacecraft
Bus & Motor
CZ-2 STAGE 2, Unknown motor
Mass
~3,800 kg wet, ~3,800 kg dry
Launch date (UTC)
2025-02-27 (10 months ago)
Launch vehicle
Unknown
Launch site
Jiuquan Satellite Launch Center, China (JSC)
Object type
Payload
Rocket body
Debris
Shape & HBR
Cyl, 3.6 m
Radar Cross Section
23.715 m², Large (>1 m²)

Expand to show TLE details & history
Last TLE update: 17 hours ago

TLE from 17 hours ago
0 CZ-2C R/B
1 63127U 25040C   25348.89829492  .00008375  00000-0  26249-3 0  9992
2 63127  97.1645  99.0700 0014926  12.6299 347.5315 15.33206821 44387
Epoch: 2025-12-14T21:33Z
TLE epoch observation values (Epoch: 2025-12-14T21:33:32.681Z)
Latitude
0.00001°
Longitude
51.87922°
Altitude
459.39 km
Speed
7.643 km/s
True Right ascension
06h 36m 16s
True Declination
0° 00' 00"
Sunlit
Object was in full shadow at epoch
Visualization orbit readout
Latitude
Unknown
Longitude
Unknown
Altitude
Unknown
Speed
Unknown
Apparent Right ascension
Unknown
Apparent Declination
Unknown
Sunlit
N/A
Visualization observer readout
Local Sidereal Time
13:26:13
Azimuth
Unknown
Elevation
Unknown
Doppler factor
Unknown
Orbital elements
Apogee altitude
473.401 km
Perigee altitude
452.979 km
Semi-major axis
6,841.327 km
Eccentricity
0.00149
Inclination
97.1645°
RAAN
99.07°
Arg. of periapsis
12.6299°
True anomaly
347.4945°
Mean anomaly
347.5315°
Eccentric anomaly
347.51301°
Mean motion
3.83559 °/min
Orbital period
93.86 mins
BSTAR
0.00026249
Loading maneuver chart data...
Computing Atmospheric mass density...
Loading historical data...
Loading historical data...
Loading historical data...
Loading historical data...
Loading historical data...
Loading historical data...
Loading historical data...
Other satellites on launch #40 in the year 2025 (2025-02-27 UTC)

Documentation

Showing up to 5 results
|